Time,TemperatureF,DewpointF,PressureIn,WindDirection,WindDirectionDegrees,WindSpeedMPH,WindSpeedGustMPH,Humidity,HourlyPrecipIn,Conditions,Clouds,dailyrainin,SoftwareType,DateUTC
2013-06-30 00:01:00,69.8,56.2,29.88,NE,47,5.0,7.0,62,0.00,,,0.00,VWS V14.01,2013-06-30 05:01:00,
2013-06-30 00:06:00,69.8,56.2,29.88,NE,47,5.0,6.0,62,0.00,,,0.00,VWS V14.01,2013-06-30 05:06:00,
2013-06-30 00:11:00,69.6,56.9,29.88,NE,48,5.0,6.0,64,0.00,,,0.00,VWS V14.01,2013-06-30 05:11:00,
2013-06-30 00:16:00,69.6,56.0,29.88,NE,47,3.0,6.0,62,0.00,,,0.00,VWS V14.01,2013-06-30 05:16:00,
2013-06-30 00:21:00,69.3,56.6,29.89,NE,47,2.0,5.0,64,0.00,,,0.00,VWS V14.01,2013-06-30 05:21:00,
2013-06-30 00:26:00,69.3,57.9,29.89,NE,48,3.0,7.0,67,0.00,,,0.00,VWS V14.01,2013-06-30 05:26:00,
2013-06-30 00:31:00,69.1,56.0,29.89,NE,48,5.0,7.0,63,0.00,,,0.00,VWS V14.01,2013-06-30 05:31:00,
2013-06-30 00:36:00,69.1,56.8,29.89,NE,52,3.0,8.0,65,0.00,,,0.00,VWS V14.01,2013-06-30 05:36:00,
2013-06-30 00:41:00,68.8,56.1,29.89,NE,52,6.0,8.0,64,0.00,,,0.00,VWS V14.01,2013-06-30 05:41:00,
2013-06-30 00:46:00,68.8,57.4,29.89,NE,48,3.0,8.0,67,0.00,,,0.00,VWS V14.01,2013-06-30 05:46:00,
2013-06-30 00:51:00,68.8,57.4,29.88,NE,48,2.0,5.0,67,0.00,,,0.00,VWS V14.01,2013-06-30 05:51:00,
2013-06-30 00:56:00,68.8,58.2,29.88,NE,48,2.0,7.0,69,0.00,,,0.00,VWS V14.01,2013-06-30 05:56:00,
2013-06-30 01:01:00,68.6,56.0,29.88,NE,49,2.0,7.0,64,0.00,,,0.00,VWS V14.01,2013-06-30 06:01:00,
2013-06-30 01:06:00,68.6,57.6,29.89,NE,49,2.0,7.0,68,0.00,,,0.00,VWS V14.01,2013-06-30 06:06:00,
2013-06-30 01:11:00,68.6,57.6,29.89,NE,49,2.0,7.0,68,0.00,,,0.00,VWS V14.01,2013-06-30 06:11:00,
2013-06-30 01:16:00,68.4,57.0,29.89,NE,49,3.0,7.0,67,0.00,,,0.00,VWS V14.01,2013-06-30 06:16:00,
2013-06-30 01:21:00,68.3,56.5,29.90,NE,49,1.0,6.0,66,0.00,,,0.00,VWS V14.01,2013-06-30 06:21:00,
2013-06-30 01:27:00,68.3,57.8,29.90,NE,38,2.0,7.0,69,0.00,,,0.00,VWS V14.01,2013-06-30 06:27:00,
2013-06-30 01:32:00,68.1,56.7,29.90,NE,38,5.0,7.0,67,0.00,,,0.00,VWS V14.01,2013-06-30 06:32:00,
2013-06-30 01:37:00,68.1,58.0,29.90,NE,37,5.0,5.0,70,0.00,,,0.00,VWS V14.01,2013-06-30 06:37:00,
2013-06-30 01:42:00,67.8,56.5,29.90,NE,35,5.0,7.0,67,0.00,,,0.00,VWS V14.01,2013-06-30 06:42:00,
2013-06-30 01:47:00,67.8,57.7,29.90,NE,35,4.0,7.0,70,0.00,,,0.00,VWS V14.01,2013-06-30 06:47:00,
2013-06-30 01:52:00,67.6,57.5,29.90,NE,35,7.0,7.0,70,0.00,,,0.00,VWS V14.01,2013-06-30 06:52:00,
2013-06-30 01:57:00,67.6,57.5,29.90,NNE,13,3.0,7.0,70,0.00,,,0.00,VWS V14.01,2013-06-30 06:57:00,
2013-06-30 02:02:00,67.4,57.7,29.90,North,10,6.0,7.0,71,0.00,,,0.00,VWS V14.01,2013-06-30 07:02:00,
2013-06-30 02:07:00,67.4,58.1,29.90,North,10,2.0,7.0,72,0.00,,,0.00,VWS V14.01,2013-06-30 07:07:00,
2013-06-30 02:12:00,67.3,58.4,29.90,North,8,3.0,7.0,73,0.00,,,0.00,VWS V14.01,2013-06-30 07:12:00,
2013-06-30 02:17:00,67.3,58.4,29.90,NNE,23,4.0,8.0,73,0.00,,,0.00,VWS V14.01,2013-06-30 07:17:00,
2013-06-30 02:22:00,67.1,57.8,29.89,NE,40,2.0,8.0,72,0.00,,,0.00,VWS V14.01,2013-06-30 07:22:00,
2013-06-30 02:27:00,66.9,58.3,29.89,North,354,5.0,8.0,74,0.00,,,0.00,VWS V14.01,2013-06-30 07:27:00,
2013-06-30 02:32:00,66.6,57.3,29.89,North,356,2.0,8.0,72,0.00,,,0.00,VWS V14.01,2013-06-30 07:32:00,
2013-06-30 02:37:00,66.3,57.8,29.89,North,354,5.0,7.0,74,0.00,,,0.00,VWS V14.01,2013-06-30 07:37:00,
2013-06-30 02:42:00,66.1,58.3,29.89,North,1,1.0,7.0,76,0.00,,,0.00,VWS V14.01,2013-06-30 07:42:00,
2013-06-30 02:47:00,66.0,57.9,29.89,North,0,5.0,7.0,75,0.00,,,0.00,VWS V14.01,2013-06-30 07:47:00,
2013-06-30 02:52:00,66.0,57.9,29.89,North,354,5.0,7.0,75,0.00,,,0.00,VWS V14.01,2013-06-30 07:52:00,
2013-06-30 02:57:00,65.8,58.0,29.89,North,354,5.0,7.0,76,0.00,,,0.00,VWS V14.01,2013-06-30 07:57:00,
2013-06-30 03:02:00,65.6,57.8,29.89,North,6,4.0,7.0,76,0.00,,,0.00,VWS V14.01,2013-06-30 08:02:00,
2013-06-30 03:07:00,65.6,57.8,29.89,NNE,28,5.0,7.0,76,0.00,,,0.00,VWS V14.01,2013-06-30 08:07:00,
2013-06-30 03:12:00,65.3,57.9,29.89,NNE,21,2.0,7.0,77,0.00,,,0.00,VWS V14.01,2013-06-30 08:12:00,
2013-06-30 03:17:00,65.2,58.5,29.89,ENE,61,3.0,8.0,79,0.00,,,0.00,VWS V14.01,2013-06-30 08:17:00,
2013-06-30 03:22:00,65.0,58.3,29.89,NE,54,7.0,7.0,79,0.00,,,0.00,VWS V14.01,2013-06-30 08:22:00,
2013-06-30 03:27:00,64.8,58.1,29.89,NE,52,6.0,11.0,79,0.00,,,0.00,VWS V14.01,2013-06-30 08:27:00,
2013-06-30 03:32:00,65.0,58.3,29.89,NE,49,6.0,11.0,79,0.00,,,0.00,VWS V14.01,2013-06-30 08:32:00,
2013-06-30 03:37:00,65.0,58.0,29.89,NE,40,5.0,10.0,78,0.00,,,0.00,VWS V14.01,2013-06-30 08:37:00,
2013-06-30 03:42:00,65.0,58.7,29.89,NE,47,5.0,10.0,80,0.00,,,0.00,VWS V14.01,2013-06-30 08:42:00,
2013-06-30 03:47:00,64.8,57.8,29.88,NE,51,7.0,10.0,78,0.00,,,0.00,VWS V14.01,2013-06-30 08:47:00,
2013-06-30 03:52:00,64.7,58.7,29.88,North,1,5.0,7.0,81,0.00,,,0.00,VWS V14.01,2013-06-30 08:52:00,
2013-06-30 03:57:00,64.5,57.8,29.88,NNE,30,3.0,7.0,79,0.00,,,0.00,VWS V14.01,2013-06-30 08:57:00,
2013-06-30 04:02:00,64.5,57.8,29.88,NNE,17,5.0,7.0,79,0.00,,,0.00,VWS V14.01,2013-06-30 09:02:00,
2013-06-30 04:07:00,64.3,57.3,29.89,NNE,24,3.0,6.0,78,0.00,,,0.00,VWS V14.01,2013-06-30 09:07:00,
2013-06-30 04:12:00,64.3,58.3,29.89,North,4,2.0,7.0,81,0.00,,,0.00,VWS V14.01,2013-06-30 09:12:00,
2013-06-30 04:17:00,64.3,57.7,29.89,North,4,4.0,7.0,79,0.00,,,0.00,VWS V14.01,2013-06-30 09:17:00,
2013-06-30 04:22:00,64.2,57.2,29.90,North,3,0.0,7.0,78,0.00,,,0.00,VWS V14.01,2013-06-30 09:22:00,
2013-06-30 04:27:00,62.6,57.0,29.90,North,3,1.0,7.0,82,0.00,,,0.00,VWS V14.01,2013-06-30 09:27:00,
2013-06-30 04:32:00,60.9,57.3,29.90,North,3,0.0,7.0,88,0.00,,,0.00,VWS V14.01,2013-06-30 09:32:00,
2013-06-30 04:37:00,59.9,56.7,29.92,North,3,0.0,0.0,89,0.00,,,0.00,VWS V14.01,2013-06-30 09:37:00,
2013-06-30 04:42:00,59.5,56.0,29.92,North,3,0.0,0.0,88,0.00,,,0.00,VWS V14.01,2013-06-30 09:42:00,
2013-06-30 04:47:00,59.5,56.0,29.92,North,3,0.0,1.0,88,0.00,,,0.00,VWS V14.01,2013-06-30 09:47:00,
2013-06-30 04:52:00,59.5,55.6,29.92,North,3,0.0,0.0,87,0.00,,,0.00,VWS V14.01,2013-06-30 09:52:00,
2013-06-30 04:57:00,59.3,55.8,29.92,North,3,0.0,0.0,88,0.00,,,0.00,VWS V14.01,2013-06-30 09:57:00,
2013-06-30 05:02:00,59.5,56.0,29.93,North,3,0.0,0.0,88,0.00,,,0.00,VWS V14.01,2013-06-30 10:02:00,
2013-06-30 05:07:00,59.5,56.0,29.93,North,3,0.0,2.0,88,0.00,,,0.00,VWS V14.01,2013-06-30 10:07:00,
2013-06-30 05:12:00,59.5,56.0,29.93,North,3,0.0,2.0,88,0.00,,,0.00,VWS V14.01,2013-06-30 10:12:00,
2013-06-30 05:17:00,59.6,56.0,29.93,North,3,1.0,5.0,88,0.00,,,0.00,VWS V14.01,2013-06-30 10:17:00,
2013-06-30 05:22:00,59.9,56.0,29.93,North,3,2.0,4.0,87,0.00,,,0.00,VWS V14.01,2013-06-30 10:22:00,
2013-06-30 05:27:00,60.9,57.3,29.93,North,3,2.0,6.0,88,0.00,,,0.00,VWS V14.01,2013-06-30 10:27:00,
2013-06-30 05:32:00,61.5,56.6,29.92,North,1,2.0,7.0,84,0.00,,,0.00,VWS V14.01,2013-06-30 10:32:00,
2013-06-30 05:37:00,62.0,56.8,29.92,North,1,5.0,5.0,83,0.00,,,0.00,VWS V14.01,2013-06-30 10:37:00,
2013-06-30 05:42:00,62.4,58.5,29.92,North,354,5.0,8.0,87,0.00,,,0.00,VWS V14.01,2013-06-30 10:42:00,
2013-06-30 05:47:00,62.4,58.5,29.93,North,359,6.0,8.0,87,0.00,,,0.00,VWS V14.01,2013-06-30 10:47:00,
2013-06-30 05:52:00,62.3,57.7,29.93,North,359,10.0,10.0,85,0.00,,,0.00,VWS V14.01,2013-06-30 10:52:00,
2013-06-30 05:57:00,62.1,56.9,29.93,North,354,0.0,10.0,83,0.00,,,0.00,VWS V14.01,2013-06-30 10:57:00,
2013-06-30 06:02:00,62.0,56.8,29.93,North,354,2.0,10.0,83,0.00,,,0.00,VWS V14.01,2013-06-30 11:02:00,
2013-06-30 06:07:00,61.6,56.7,29.93,North,354,4.0,7.0,84,0.00,,,0.00,VWS V14.01,2013-06-30 11:07:00,
2013-06-30 06:12:00,62.0,58.1,29.93,North,354,5.0,10.0,87,0.00,,,0.00,VWS V14.01,2013-06-30 11:12:00,
2013-06-30 06:17:00,62.0,57.5,29.94,North,356,7.0,11.0,85,0.00,,,0.00,VWS V14.01,2013-06-30 11:17:00,
2013-06-30 06:22:00,61.8,58.2,29.94,North,359,7.0,8.0,88,0.00,,,0.00,VWS V14.01,2013-06-30 11:22:00,
2013-06-30 06:27:00,61.5,57.6,29.94,North,359,5.0,10.0,87,0.00,,,0.00,VWS V14.01,2013-06-30 11:27:00,
2013-06-30 06:32:00,61.2,57.0,29.95,North,359,2.0,10.0,86,0.00,,,0.00,VWS V14.01,2013-06-30 11:32:00,
2013-06-30 06:37:00,61.2,57.3,29.95,North,359,4.0,6.0,87,0.00,,,0.00,VWS V14.01,2013-06-30 11:37:00,
2013-06-30 06:42:00,61.2,57.0,29.95,North,359,2.0,7.0,86,0.00,,,0.00,VWS V14.01,2013-06-30 11:42:00,
2013-06-30 06:47:00,61.2,56.7,29.95,North,359,2.0,7.0,85,0.00,,,0.00,VWS V14.01,2013-06-30 11:47:00,
2013-06-30 06:52:00,60.9,56.4,29.95,North,359,2.0,2.0,85,0.00,,,0.00,VWS V14.01,2013-06-30 11:52:00,
2013-06-30 06:57:00,61.2,56.7,29.95,North,359,2.0,5.0,85,0.00,,,0.00,VWS V14.01,2013-06-30 11:57:00,
2013-06-30 07:02:00,61.5,58.2,29.95,North,359,4.0,6.0,89,0.00,,,0.00,VWS V14.01,2013-06-30 12:02:00,
2013-06-30 07:07:00,61.8,58.2,29.95,North,359,5.0,6.0,88,0.00,,,0.00,VWS V14.01,2013-06-30 12:07:00,
2013-06-30 07:12:00,61.8,58.2,29.95,North,359,5.0,7.0,88,0.00,,,0.00,VWS V14.01,2013-06-30 12:12:00,
2013-06-30 07:17:00,61.8,57.9,29.96,North,359,3.0,7.0,87,0.00,,,0.00,VWS V14.01,2013-06-30 12:17:00,
2013-06-30 07:22:00,62.3,59.0,29.96,North,359,2.0,7.0,89,0.00,,,0.00,VWS V14.01,2013-06-30 12:22:00,
2013-06-30 07:27:00,62.9,59.9,29.96,North,359,6.0,7.0,90,0.00,,,0.00,VWS V14.01,2013-06-30 12:27:00,
2013-06-30 07:32:00,62.9,59.3,29.96,North,354,4.0,8.0,88,0.00,,,0.00,VWS V14.01,2013-06-30 12:32:00,
2013-06-30 07:37:00,63.1,59.2,29.96,North,354,5.0,9.0,87,0.00,,,0.00,VWS V14.01,2013-06-30 12:37:00,
2013-06-30 07:42:00,63.1,58.5,29.96,North,359,5.0,9.0,85,0.00,,,0.00,VWS V14.01,2013-06-30 12:42:00,
2013-06-30 07:47:00,63.1,59.2,29.96,North,354,5.0,9.0,87,0.00,,,0.00,VWS V14.01,2013-06-30 12:47:00,
2013-06-30 07:52:00,63.1,58.2,29.96,North,354,6.0,8.0,84,0.00,,,0.00,VWS V14.01,2013-06-30 12:52:00,
2013-06-30 07:57:00,63.1,58.8,29.96,North,354,6.0,10.0,86,0.00,,,0.00,VWS V14.01,2013-06-30 12:57:00,
2013-06-30 08:02:00,63.1,58.8,29.96,North,354,5.0,10.0,86,0.00,,,0.00,VWS V14.01,2013-06-30 13:02:00,
2013-06-30 08:07:00,63.1,59.5,29.96,North,354,6.0,7.0,88,0.00,,,0.00,VWS V14.01,2013-06-30 13:07:00,
2013-06-30 08:12:00,63.2,58.6,29.96,North,354,5.0,8.0,85,0.00,,,0.00,VWS V14.01,2013-06-30 13:12:00,
2013-06-30 08:17:00,63.4,59.2,29.97,North,354,5.0,8.0,86,0.00,,,0.00,VWS V14.01,2013-06-30 13:17:00,
2013-06-30 08:22:00,63.9,59.3,29.97,North,354,4.0,7.0,85,0.00,,,0.00,VWS V14.01,2013-06-30 13:22:00,
2013-06-30 08:27:00,64.0,58.7,29.97,North,359,6.0,9.0,83,0.00,,,0.00,VWS V14.01,2013-06-30 13:27:00,
2013-06-30 08:32:00,64.2,58.6,29.98,North,359,5.0,9.0,82,0.00,,,0.00,VWS V14.01,2013-06-30 13:32:00,
2013-06-30 08:37:00,64.5,59.2,29.98,North,354,7.0,8.0,83,0.00,,,0.00,VWS V14.01,2013-06-30 13:37:00,
2013-06-30 08:42:00,64.7,59.1,29.98,NNE,24,5.0,8.0,82,0.00,,,0.00,VWS V14.01,2013-06-30 13:42:00,
2013-06-30 08:47:00,64.8,59.5,29.97,North,6,6.0,8.0,83,0.00,,,0.00,VWS V14.01,2013-06-30 13:47:00,
2013-06-30 08:52:00,65.0,59.0,29.97,North,0,4.0,7.0,81,0.00,,,0.00,VWS V14.01,2013-06-30 13:52:00,
2013-06-30 08:57:00,65.2,59.2,29.97,North,0,3.0,7.0,81,0.00,,,0.00,VWS V14.01,2013-06-30 13:57:00,
2013-06-30 09:02:00,65.3,59.0,29.97,North,359,3.0,8.0,80,0.00,,,0.00,VWS V14.01,2013-06-30 14:02:00,
2013-06-30 09:07:00,65.3,59.0,29.97,North,354,7.0,10.0,80,0.00,,,0.00,VWS V14.01,2013-06-30 14:07:00,
2013-06-30 09:12:00,65.5,59.2,29.97,North,354,5.0,10.0,80,0.00,,,0.00,VWS V14.01,2013-06-30 14:12:00,
2013-06-30 09:17:00,65.6,58.6,29.97,North,354,4.0,10.0,78,0.00,,,0.00,VWS V14.01,2013-06-30 14:17:00,
2013-06-30 09:22:00,66.0,59.7,29.97,North,354,3.0,7.0,80,0.00,,,0.00,VWS V14.01,2013-06-30 14:22:00,
2013-06-30 09:27:00,66.3,60.0,29.97,NNE,17,7.0,7.0,80,0.00,,,0.00,VWS V14.01,2013-06-30 14:27:00,
2013-06-30 09:32:00,66.4,59.3,29.98,NNE,13,5.0,7.0,78,0.00,,,0.00,VWS V14.01,2013-06-30 14:32:00,
2013-06-30 09:37:00,66.8,59.0,29.98,North,6,5.0,7.0,76,0.00,,,0.00,VWS V14.01,2013-06-30 14:37:00,
2013-06-30 09:42:00,67.1,60.0,29.98,NNE,24,5.0,8.0,78,0.00,,,0.00,VWS V14.01,2013-06-30 14:42:00,
2013-06-30 09:47:00,67.1,60.0,29.98,North,0,4.0,8.0,78,0.00,,,0.00,VWS V14.01,2013-06-30 14:47:00,
2013-06-30 09:52:00,67.3,60.6,29.98,North,0,4.0,6.0,79,0.00,,,0.00,VWS V14.01,2013-06-30 14:52:00,
2013-06-30 09:57:00,67.3,60.2,29.98,North,0,2.0,6.0,78,0.00,,,0.00,VWS V14.01,2013-06-30 14:57:00,
2013-06-30 10:02:00,67.4,60.3,29.98,North,0,5.0,6.0,78,0.00,,,0.00,VWS V14.01,2013-06-30 15:02:00,
2013-06-30 10:07:00,67.9,58.9,29.97,NE,49,2.0,6.0,73,0.00,,,0.00,VWS V14.01,2013-06-30 15:07:00,
2013-06-30 10:12:00,68.1,59.1,29.97,NE,49,2.0,7.0,73,0.00,,,0.00,VWS V14.01,2013-06-30 15:12:00,
2013-06-30 10:17:00,68.4,58.6,29.97,NE,42,2.0,8.0,71,0.00,,,0.00,VWS V14.01,2013-06-30 15:17:00,
2013-06-30 10:22:00,68.4,59.0,29.97,NE,42,0.0,5.0,72,0.00,,,0.00,VWS V14.01,2013-06-30 15:22:00,
2013-06-30 10:27:00,68.8,57.4,29.97,NNE,13,3.0,7.0,67,0.00,,,0.00,VWS V14.01,2013-06-30 15:27:00,
2013-06-30 10:32:00,69.1,58.5,29.97,North,6,0.0,7.0,69,0.00,,,0.00,VWS V14.01,2013-06-30 15:32:00,
2013-06-30 10:37:00,69.1,57.3,29.97,North,0,8.0,10.0,66,0.00,,,0.00,VWS V14.01,2013-06-30 15:37:00,
2013-06-30 10:42:00,69.3,57.5,29.97,North,1,0.0,10.0,66,0.00,,,0.00,VWS V14.01,2013-06-30 15:42:00,
2013-06-30 10:47:00,69.6,56.0,29.96,North,0,2.0,10.0,62,0.00,,,0.00,VWS V14.01,2013-06-30 15:47:00,
2013-06-30 10:52:00,69.8,55.8,29.96,NE,49,5.0,10.0,61,0.00,,,0.00,VWS V14.01,2013-06-30 15:52:00,
2013-06-30 10:57:00,69.8,54.4,29.96,North,0,6.0,10.0,58,0.00,,,0.00,VWS V14.01,2013-06-30 15:57:00,
2013-06-30 11:02:00,69.9,56.3,29.96,North,7,6.0,10.0,62,0.00,,,0.00,VWS V14.01,2013-06-30 16:02:00,
2013-06-30 11:07:00,70.3,57.6,29.96,North,0,7.0,7.0,64,0.00,,,0.00,VWS V14.01,2013-06-30 16:07:00,
2013-06-30 11:12:00,70.4,56.8,29.96,NE,44,2.0,11.0,62,0.00,,,0.00,VWS V14.01,2013-06-30 16:12:00,
2013-06-30 11:17:00,70.4,55.9,29.96,NE,35,5.0,11.0,60,0.00,,,0.00,VWS V14.01,2013-06-30 16:17:00,
2013-06-30 11:22:00,70.4,55.4,29.96,NNE,31,3.0,6.0,59,0.00,,,0.00,VWS V14.01,2013-06-30 16:22:00,
2013-06-30 11:27:00,70.6,56.5,29.96,North,10,4.0,8.0,61,0.00,,,0.00,VWS V14.01,2013-06-30 16:27:00,
2013-06-30 11:32:00,70.6,55.1,29.96,NNE,14,3.0,8.0,58,0.00,,,0.00,VWS V14.01,2013-06-30 16:32:00,
2013-06-30 11:37:00,70.4,54.0,29.96,North,8,3.0,7.0,56,0.00,,,0.00,VWS V14.01,2013-06-30 16:37:00,
2013-06-30 11:42:00,70.8,55.3,29.96,NNE,27,5.0,7.0,58,0.00,,,0.00,VWS V14.01,2013-06-30 16:42:00,
2013-06-30 11:47:00,70.9,55.4,29.96,North,0,7.0,10.0,58,0.00,,,0.00,VWS V14.01,2013-06-30 16:47:00,
2013-06-30 11:52:00,70.9,54.9,29.96,North,0,5.0,8.0,57,0.00,,,0.00,VWS V14.01,2013-06-30 16:52:00,
2013-06-30 11:57:00,71.1,54.1,29.96,North,359,6.0,9.0,55,0.00,,,0.00,VWS V14.01,2013-06-30 16:57:00,
2013-06-30 12:02:00,71.3,54.8,29.96,North,359,3.0,9.0,56,0.00,,,0.00,VWS V14.01,2013-06-30 17:02:00,
2013-06-30 12:07:00,71.3,54.8,29.96,North,359,2.0,5.0,56,0.00,,,0.00,VWS V14.01,2013-06-30 17:07:00,
2013-06-30 12:12:00,71.6,55.1,29.96,North,356,2.0,8.0,56,0.00,,,0.00,VWS V14.01,2013-06-30 17:12:00,
2013-06-30 12:17:00,71.6,54.1,29.95,North,0,5.0,11.0,54,0.00,,,0.00,VWS V14.01,2013-06-30 17:17:00,
2013-06-30 12:22:00,71.8,52.7,29.95,North,0,3.0,7.0,51,0.00,,,0.00,VWS V14.01,2013-06-30 17:22:00,
2013-06-30 12:27:00,71.8,54.3,29.95,North,1,5.0,8.0,54,0.00,,,0.00,VWS V14.01,2013-06-30 17:27:00,
2013-06-30 12:32:00,72.0,52.4,29.95,North,1,0.0,8.0,50,0.00,,,0.00,VWS V14.01,2013-06-30 17:32:00,
2013-06-30 12:37:00,72.3,53.7,29.95,North,1,3.0,6.0,52,0.00,,,0.00,VWS V14.01,2013-06-30 17:37:00,
2013-06-30 12:42:00,72.3,53.2,29.95,North,1,4.0,7.0,51,0.00,,,0.00,VWS V14.01,2013-06-30 17:42:00,
2013-06-30 12:47:00,72.3,51.5,29.95,North,359,5.0,10.0,48,0.00,,,0.00,VWS V14.01,2013-06-30 17:47:00,
2013-06-30 12:52:00,72.7,50.8,29.95,NE,48,10.0,10.0,46,0.00,,,0.00,VWS V14.01,2013-06-30 17:52:00,
2013-06-30 12:57:00,72.5,53.4,29.95,NNE,21,1.0,10.0,51,0.00,,,0.00,VWS V14.01,2013-06-30 17:57:00,
2013-06-30 13:02:00,72.5,52.3,29.95,NE,48,7.0,10.0,49,0.00,,,0.00,VWS V14.01,2013-06-30 18:02:00,
2013-06-30 13:07:00,72.5,53.9,29.95,North,0,6.0,7.0,52,0.00,,,0.00,VWS V14.01,2013-06-30 18:07:00,
2013-06-30 13:12:00,72.5,52.3,29.95,North,356,7.0,10.0,49,0.00,,,0.00,VWS V14.01,2013-06-30 18:12:00,
2013-06-30 13:17:00,72.7,50.8,29.95,North,359,6.0,10.0,46,0.00,,,0.00,VWS V14.01,2013-06-30 18:17:00,
2013-06-30 13:22:00,73.0,54.9,29.95,North,356,6.0,7.0,53,0.00,,,0.00,VWS V14.01,2013-06-30 18:22:00,
2013-06-30 13:27:00,73.2,54.5,29.95,NNE,17,5.0,8.0,52,0.00,,,0.00,VWS V14.01,2013-06-30 18:27:00,
2013-06-30 13:32:00,73.5,52.1,29.95,North,4,5.0,8.0,47,0.00,,,0.00,VWS V14.01,2013-06-30 18:32:00,
2013-06-30 13:37:00,73.5,53.2,29.95,ENE,58,5.0,12.0,49,0.00,,,0.00,VWS V14.01,2013-06-30 18:37:00,
2013-06-30 13:42:00,73.5,51.5,29.95,NE,48,5.0,12.0,46,0.00,,,0.00,VWS V14.01,2013-06-30 18:42:00,
2013-06-30 13:47:00,73.7,51.1,29.94,North,359,5.0,12.0,45,0.00,,,0.00,VWS V14.01,2013-06-30 18:47:00,
2013-06-30 13:52:00,74.0,53.1,29.94,North,359,3.0,10.0,48,0.00,,,0.00,VWS V14.01,2013-06-30 18:52:00,
2013-06-30 13:57:00,74.0,52.5,29.94,NE,44,7.0,10.0,47,0.00,,,0.00,VWS V14.01,2013-06-30 18:57:00,
2013-06-30 14:02:00,74.0,54.7,29.94,North,359,7.0,10.0,51,0.00,,,0.00,VWS V14.01,2013-06-30 19:02:00,
2013-06-30 14:07:00,74.2,52.7,29.94,NE,51,5.0,10.0,47,0.00,,,0.00,VWS V14.01,2013-06-30 19:07:00,
2013-06-30 14:12:00,74.4,55.1,29.94,North,3,2.0,10.0,51,0.00,,,0.00,VWS V14.01,2013-06-30 19:12:00,
2013-06-30 14:17:00,74.6,53.1,29.95,North,8,4.0,10.0,47,0.00,,,0.00,VWS V14.01,2013-06-30 19:17:00,
2013-06-30 14:22:00,74.9,55.0,29.95,North,4,5.0,7.0,50,0.00,,,0.00,VWS V14.01,2013-06-30 19:22:00,
2013-06-30 14:27:00,74.9,54.5,29.95,North,4,2.0,7.0,49,0.00,,,0.00,VWS V14.01,2013-06-30 19:27:00,
2013-06-30 14:32:00,74.7,54.3,29.95,NNE,31,6.0,12.0,49,0.00,,,0.00,VWS V14.01,2013-06-30 19:32:00,
2013-06-30 14:37:00,74.2,53.3,29.95,NE,54,2.0,10.0,48,0.00,,,0.00,VWS V14.01,2013-06-30 19:37:00,
2013-06-30 14:42:00,74.4,52.3,29.95,NE,51,4.0,11.0,46,0.00,,,0.00,VWS V14.01,2013-06-30 19:42:00,
2013-06-30 14:47:00,74.7,53.2,29.95,North,8,2.0,11.0,47,0.00,,,0.00,VWS V14.01,2013-06-30 19:47:00,
2013-06-30 14:52:00,74.6,53.6,29.95,NE,51,2.0,9.0,48,0.00,,,0.00,VWS V14.01,2013-06-30 19:52:00,
2013-06-30 14:57:00,74.9,54.5,29.95,North,354,7.0,10.0,49,0.00,,,0.00,VWS V14.01,2013-06-30 19:57:00,
2013-06-30 15:02:00,74.6,53.1,29.94,NE,42,5.0,10.0,47,0.00,,,0.00,VWS V14.01,2013-06-30 20:02:00,
2013-06-30 15:07:00,74.6,53.1,29.94,North,356,5.0,7.0,47,0.00,,,0.00,VWS V14.01,2013-06-30 20:07:00,
2013-06-30 15:12:00,74.9,55.6,29.94,North,6,5.0,11.0,51,0.00,,,0.00,VWS V14.01,2013-06-30 20:12:00,
2013-06-30 15:17:00,74.9,51.5,29.94,NNW,346,4.0,11.0,44,0.00,,,0.00,VWS V14.01,2013-06-30 20:17:00,
2013-06-30 15:22:00,74.9,55.0,29.94,North,4,3.0,10.0,50,0.00,,,0.00,VWS V14.01,2013-06-30 20:22:00,
2013-06-30 15:27:00,75.1,54.1,29.94,NE,48,2.0,10.0,48,0.00,,,0.00,VWS V14.01,2013-06-30 20:27:00,
2013-06-30 15:32:00,75.3,54.8,29.94,North,356,6.0,10.0,49,0.00,,,0.00,VWS V14.01,2013-06-30 20:32:00,
2013-06-30 15:37:00,75.4,53.8,29.94,North,1,5.0,8.0,47,0.00,,,0.00,VWS V14.01,2013-06-30 20:37:00,
2013-06-30 15:42:00,75.1,53.5,29.94,NNE,20,7.0,10.0,47,0.00,,,0.00,VWS V14.01,2013-06-30 20:42:00,
2013-06-30 15:47:00,75.1,52.9,29.94,NE,35,2.0,10.0,46,0.00,,,0.00,VWS V14.01,2013-06-30 20:47:00,
2013-06-30 15:52:00,75.3,55.4,29.94,North,0,5.0,7.0,50,0.00,,,0.00,VWS V14.01,2013-06-30 20:52:00,
2013-06-30 15:57:00,75.4,53.2,29.94,NE,35,2.0,7.0,46,0.00,,,0.00,VWS V14.01,2013-06-30 20:57:00,
2013-06-30 16:02:00,75.4,53.2,29.94,NE,47,1.0,12.0,46,0.00,,,0.00,VWS V14.01,2013-06-30 21:02:00,
2013-06-30 16:07:00,75.6,52.8,29.94,NE,55,10.0,12.0,45,0.00,,,0.00,VWS V14.01,2013-06-30 21:07:00,
2013-06-30 16:12:00,75.6,51.5,29.94,NE,44,5.0,12.0,43,0.00,,,0.00,VWS V14.01,2013-06-30 21:12:00,
2013-06-30 16:17:00,75.6,53.4,29.94,North,0,6.0,12.0,46,0.00,,,0.00,VWS V14.01,2013-06-30 21:17:00,
2013-06-30 16:22:00,75.8,56.4,29.94,North,359,7.0,11.0,51,0.00,,,0.00,VWS V14.01,2013-06-30 21:22:00,
2013-06-30 16:27:00,75.8,51.7,29.94,NNE,13,7.0,11.0,43,0.00,,,0.00,VWS V14.01,2013-06-30 21:27:00,
2013-06-30 16:32:00,76.0,51.3,29.94,North,354,6.0,11.0,42,0.00,,,0.00,VWS V14.01,2013-06-30 21:32:00,
2013-06-30 16:37:00,76.0,52.5,29.94,North,354,5.0,6.0,44,0.00,,,0.00,VWS V14.01,2013-06-30 21:37:00,
2013-06-30 16:42:00,75.8,54.7,29.94,NE,40,5.0,10.0,48,0.00,,,0.00,VWS V14.01,2013-06-30 21:42:00,
2013-06-30 16:47:00,75.6,54.0,29.94,NE,45,5.0,10.0,47,0.00,,,0.00,VWS V14.01,2013-06-30 21:47:00,
2013-06-30 16:52:00,75.6,55.1,29.94,NE,48,6.0,10.0,49,0.00,,,0.00,VWS V14.01,2013-06-30 21:52:00,
2013-06-30 16:57:00,75.8,51.7,29.94,North,354,6.0,10.0,43,0.00,,,0.00,VWS V14.01,2013-06-30 21:57:00,
2013-06-30 17:02:00,76.0,52.5,29.94,North,354,4.0,10.0,44,0.00,,,0.00,VWS V14.01,2013-06-30 22:02:00,
2013-06-30 17:07:00,76.1,53.8,29.94,North,354,3.0,7.0,46,0.00,,,0.00,VWS V14.01,2013-06-30 22:07:00,
2013-06-30 17:08:00,76.0,51.9,29.94,North,354,6.0,7.0,43,0.00,,,0.00,VWS V14.01,2013-06-30 22:08:00,
2013-06-30 17:13:00,76.1,53.2,29.94,North,1,5.0,7.0,45,0.00,,,0.00,VWS V14.01,2013-06-30 22:13:00,
2013-06-30 17:18:00,76.3,50.9,29.93,NE,51,2.0,5.0,41,0.00,,,0.00,VWS V14.01,2013-06-30 22:18:00,
2013-06-30 17:23:00,76.3,52.2,29.93,NNE,16,6.0,8.0,43,0.00,,,0.00,VWS V14.01,2013-06-30 22:23:00,
2013-06-30 17:28:00,76.1,53.2,29.93,NE,45,7.0,11.0,45,0.00,,,0.00,VWS V14.01,2013-06-30 22:28:00,
2013-06-30 17:33:00,76.1,55.0,29.93,NE,47,5.0,6.0,48,0.00,,,0.00,VWS V14.01,2013-06-30 22:33:00,
2013-06-30 17:38:00,76.1,53.8,29.93,NNE,30,7.0,10.0,46,0.00,,,0.00,VWS V14.01,2013-06-30 22:38:00,
2013-06-30 17:43:00,76.1,53.2,29.93,NE,40,2.0,11.0,45,0.00,,,0.00,VWS V14.01,2013-06-30 22:43:00,
2013-06-30 17:48:00,76.1,53.8,29.93,NE,40,3.0,7.0,46,0.00,,,0.00,VWS V14.01,2013-06-30 22:48:00,
2013-06-30 17:53:00,76.0,51.9,29.93,NE,40,6.0,7.0,43,0.00,,,0.00,VWS V14.01,2013-06-30 22:53:00,
2013-06-30 17:58:00,76.1,54.4,29.93,NNE,23,5.0,7.0,47,0.00,,,0.00,VWS V14.01,2013-06-30 22:58:00,
2013-06-30 18:03:00,76.3,55.2,29.93,NE,44,6.0,9.0,48,0.00,,,0.00,VWS V14.01,2013-06-30 23:03:00,
2013-06-30 18:08:00,76.5,55.9,29.93,NE,47,7.0,9.0,49,0.00,,,0.00,VWS V14.01,2013-06-30 23:08:00,
2013-06-30 18:13:00,76.3,53.4,29.93,NE,47,2.0,9.0,45,0.00,,,0.00,VWS V14.01,2013-06-30 23:13:00,
2013-06-30 18:18:00,76.5,54.2,29.93,NE,52,6.0,8.0,46,0.00,,,0.00,VWS V14.01,2013-06-30 23:18:00,
2013-06-30 18:23:00,76.3,53.4,29.93,NE,38,6.0,11.0,45,0.00,,,0.00,VWS V14.01,2013-06-30 23:23:00,
2013-06-30 18:28:00,76.1,56.1,29.93,NE,40,2.0,11.0,50,0.00,,,0.00,VWS V14.01,2013-06-30 23:28:00,
2013-06-30 18:33:00,76.0,54.9,29.92,NE,41,1.0,4.0,48,0.00,,,0.00,VWS V14.01,2013-06-30 23:33:00,
2013-06-30 18:38:00,76.1,54.4,29.92,NE,42,5.0,7.0,47,0.00,,,0.00,VWS V14.01,2013-06-30 23:38:00,
2013-06-30 18:43:00,76.0,54.3,29.92,NNE,31,9.0,13.0,47,0.00,,,0.00,VWS V14.01,2013-06-30 23:43:00,
2013-06-30 18:48:00,75.8,55.9,29.93,NE,34,8.0,8.0,50,0.00,,,0.00,VWS V14.01,2013-06-30 23:48:00,
2013-06-30 18:53:00,75.8,54.7,29.93,NE,40,5.0,8.0,48,0.00,,,0.00,VWS V14.01,2013-06-30 23:53:00,
2013-06-30 18:58:00,75.8,54.7,29.93,NE,40,5.0,8.0,48,0.00,,,0.00,VWS V14.01,2013-06-30 23:58:00,
2013-06-30 19:03:00,76.0,56.0,29.93,NE,40,4.0,6.0,50,0.00,,,0.00,VWS V14.01,2013-07-01 00:03:00,
2013-06-30 19:08:00,75.8,54.7,29.93,NE,42,5.0,8.0,48,0.00,,,0.00,VWS V14.01,2013-07-01 00:08:00,
2013-06-30 19:13:00,75.8,54.2,29.93,NE,44,4.0,8.0,47,0.00,,,0.00,VWS V14.01,2013-07-01 00:13:00,
2013-06-30 19:18:00,75.8,54.7,29.93,NE,44,0.0,2.0,48,0.00,,,0.00,VWS V14.01,2013-07-01 00:18:00,
2013-06-30 19:23:00,75.6,54.5,29.93,NE,48,5.0,10.0,48,0.00,,,0.00,VWS V14.01,2013-07-01 00:23:00,
2013-06-30 19:28:00,75.6,56.8,29.93,NE,37,5.0,11.0,52,0.00,,,0.00,VWS V14.01,2013-07-01 00:28:00,
2013-06-30 19:33:00,75.3,54.8,29.94,NE,47,5.0,5.0,49,0.00,,,0.00,VWS V14.01,2013-07-01 00:33:00,
2013-06-30 19:38:00,75.1,57.8,29.94,NE,47,5.0,7.0,55,0.00,,,0.00,VWS V14.01,2013-07-01 00:38:00,
2013-06-30 19:43:00,74.9,56.6,29.94,NE,44,2.0,9.0,53,0.00,,,0.00,VWS V14.01,2013-07-01 00:43:00,
2013-06-30 19:48:00,74.7,55.9,29.93,NE,45,0.0,2.0,52,0.00,,,0.00,VWS V14.01,2013-07-01 00:48:00,
2013-06-30 19:53:00,74.7,55.9,29.93,NE,45,4.0,7.0,52,0.00,,,0.00,VWS V14.01,2013-07-01 00:53:00,
2013-06-30 19:58:00,74.6,56.9,29.93,NE,48,5.0,7.0,54,0.00,,,0.00,VWS V14.01,2013-07-01 00:58:00,
2013-06-30 20:03:00,74.4,56.2,29.94,NE,48,5.0,5.0,53,0.00,,,0.00,VWS V14.01,2013-07-01 01:03:00,
2013-06-30 20:08:00,74.0,57.3,29.94,NE,48,1.0,6.0,56,0.00,,,0.00,VWS V14.01,2013-07-01 01:08:00,
2013-06-30 20:13:00,73.9,58.2,29.94,NE,48,2.0,6.0,58,0.00,,,0.00,VWS V14.01,2013-07-01 01:13:00,
2013-06-30 20:18:00,73.7,57.0,29.94,NE,48,1.0,2.0,56,0.00,,,0.00,VWS V14.01,2013-07-01 01:18:00,
2013-06-30 20:23:00,73.5,56.9,29.94,NE,48,3.0,7.0,56,0.00,,,0.00,VWS V14.01,2013-07-01 01:23:00,
2013-06-30 20:28:00,73.3,55.7,29.94,NE,48,5.0,7.0,54,0.00,,,0.00,VWS V14.01,2013-07-01 01:28:00,
2013-06-30 20:33:00,73.3,57.2,29.94,NE,48,2.0,2.0,57,0.00,,,0.00,VWS V14.01,2013-07-01 01:33:00,
2013-06-30 20:38:00,73.2,57.5,29.94,NE,48,5.0,5.0,58,0.00,,,0.00,VWS V14.01,2013-07-01 01:38:00,
2013-06-30 20:43:00,73.0,56.9,29.94,NE,48,2.0,7.0,57,0.00,,,0.00,VWS V14.01,2013-07-01 01:43:00,
2013-06-30 20:48:00,72.8,58.1,29.95,NE,48,2.0,3.0,60,0.00,,,0.00,VWS V14.01,2013-07-01 01:48:00,
2013-06-30 20:53:00,72.7,58.0,29.95,NE,48,5.0,5.0,60,0.00,,,0.00,VWS V14.01,2013-07-01 01:53:00,
2013-06-30 20:58:00,72.3,57.7,29.95,NE,48,2.0,7.0,60,0.00,,,0.00,VWS V14.01,2013-07-01 01:58:00,
2013-06-30 21:03:00,72.1,57.9,29.96,NE,48,3.0,4.0,61,0.00,,,0.00,VWS V14.01,2013-07-01 02:03:00,
2013-06-30 21:08:00,72.0,58.7,29.96,NE,47,5.0,6.0,63,0.00,,,0.00,VWS V14.01,2013-07-01 02:08:00,
2013-06-30 21:13:00,71.6,57.5,29.96,NE,47,2.0,6.0,61,0.00,,,0.00,VWS V14.01,2013-07-01 02:13:00,
2013-06-30 21:18:00,71.6,59.7,29.95,NE,47,0.0,1.0,66,0.00,,,0.00,VWS V14.01,2013-07-01 02:18:00,
2013-06-30 21:23:00,71.5,58.7,29.95,NE,47,0.0,7.0,64,0.00,,,0.00,VWS V14.01,2013-07-01 02:23:00,
2013-06-30 21:28:00,71.1,57.4,29.95,NE,47,0.0,7.0,62,0.00,,,0.00,VWS V14.01,2013-07-01 02:28:00,
2013-06-30 21:33:00,70.9,59.0,29.96,NE,47,2.0,2.0,66,0.00,,,0.00,VWS V14.01,2013-07-01 02:33:00,
2013-06-30 21:38:00,70.8,58.5,29.96,NE,47,2.0,5.0,65,0.00,,,0.00,VWS V14.01,2013-07-01 02:38:00,
2013-06-30 21:43:00,70.8,58.5,29.96,NE,47,0.0,5.0,65,0.00,,,0.00,VWS V14.01,2013-07-01 02:43:00,
2013-06-30 21:48:00,70.6,57.8,29.97,NE,47,2.0,2.0,64,0.00,,,0.00,VWS V14.01,2013-07-01 02:48:00,
2013-06-30 21:53:00,70.3,58.8,29.97,NE,45,2.0,6.0,67,0.00,,,0.00,VWS V14.01,2013-07-01 02:53:00,
2013-06-30 21:58:00,70.3,57.6,29.97,NE,45,5.0,6.0,64,0.00,,,0.00,VWS V14.01,2013-07-01 02:58:00,
2013-06-30 22:03:00,69.9,56.8,29.98,NE,51,2.0,5.0,63,0.00,,,0.00,VWS V14.01,2013-07-01 03:03:00,
2013-06-30 22:08:00,69.4,56.7,29.98,NE,49,2.0,7.0,64,0.00,,,0.00,VWS V14.01,2013-07-01 03:08:00,
2013-06-30 22:13:00,69.1,57.7,29.98,NE,35,2.0,7.0,67,0.00,,,0.00,VWS V14.01,2013-07-01 03:13:00,
2013-06-30 22:18:00,68.8,57.0,29.99,NE,37,1.0,1.0,66,0.00,,,0.00,VWS V14.01,2013-07-01 03:18:00,
2013-06-30 22:23:00,68.6,57.2,29.99,NE,37,1.0,3.0,67,0.00,,,0.00,VWS V14.01,2013-07-01 03:23:00,
2013-06-30 22:28:00,68.3,55.7,29.99,NE,41,0.0,7.0,64,0.00,,,0.00,VWS V14.01,2013-07-01 03:28:00,
2013-06-30 22:33:00,68.1,55.9,30.00,NE,41,2.0,4.0,65,0.00,,,0.00,VWS V14.01,2013-07-01 03:33:00,
2013-06-30 22:38:00,67.8,56.9,30.00,NE,41,1.0,5.0,68,0.00,,,0.00,VWS V14.01,2013-07-01 03:38:00,
2013-06-30 22:43:00,67.8,56.5,30.00,NE,41,2.0,5.0,67,0.00,,,0.00,VWS V14.01,2013-07-01 03:43:00,
2013-06-30 22:48:00,67.4,56.5,30.00,NE,41,0.0,3.0,68,0.00,,,0.00,VWS V14.01,2013-07-01 03:48:00,
2013-06-30 22:53:00,67.3,56.4,30.00,NE,41,0.0,5.0,68,0.00,,,0.00,VWS V14.01,2013-07-01 03:53:00,
2013-06-30 22:58:00,67.1,55.8,30.00,NE,41,2.0,5.0,67,0.00,,,0.00,VWS V14.01,2013-07-01 03:58:00,
2013-06-30 23:01:00,67.1,56.2,30.00,NE,41,0.0,5.0,68,0.00,,,0.00,VWS V14.01,2013-07-01 04:01:00,
2013-06-30 23:06:00,66.9,56.4,30.01,NE,41,0.0,1.0,69,0.00,,,0.00,VWS V14.01,2013-07-01 04:06:00,
2013-06-30 23:11:00,66.8,56.7,30.01,NE,41,0.0,3.0,70,0.00,,,0.00,VWS V14.01,2013-07-01 04:11:00,
2013-06-30 23:16:00,66.6,56.5,30.01,NE,41,0.0,3.0,70,0.00,,,0.00,VWS V14.01,2013-07-01 04:16:00,
2013-06-30 23:21:00,66.4,56.3,30.00,NE,41,0.0,0.0,70,0.00,,,0.00,VWS V14.01,2013-07-01 04:21:00,
2013-06-30 23:26:00,66.1,56.4,30.00,NE,41,0.0,2.0,71,0.00,,,0.00,VWS V14.01,2013-07-01 04:26:00,
2013-06-30 23:31:00,66.0,56.7,30.00,NE,41,0.0,2.0,72,0.00,,,0.00,VWS V14.01,2013-07-01 04:31:00,
2013-06-30 23:36:00,66.0,57.1,30.00,NE,41,0.0,1.0,73,0.00,,,0.00,VWS V14.01,2013-07-01 04:36:00,
2013-06-30 23:41:00,66.1,56.0,30.00,NE,41,0.0,2.0,70,0.00,,,0.00,VWS V14.01,2013-07-01 04:41:00,
2013-06-30 23:46:00,66.1,55.2,30.00,NE,41,2.0,2.0,68,0.00,,,0.00,VWS V14.01,2013-07-01 04:46:00,
2013-06-30 23:51:00,66.1,54.8,30.01,NE,41,0.0,2.0,67,0.00,,,0.00,VWS V14.01,2013-07-01 04:51:00,
2013-06-30 23:56:00,66.1,55.7,30.01,NE,41,0.0,3.0,69,0.00,,,0.00,VWS V14.01,2013-07-01 04:56:00,